[[{"header":{"parameterUnit":"m.s-1","parameterCategory":1,"la1":30.2991,"la2":30.254,"lo1":-89.0895,"lo2":-89.0444,"dy":0.0017,"dx":0.0017,"nx":28,"ny":28,"refTime":"2024-09-28T09:00:00:Z","depth":0,"parameterNumber":2,"parameterNumberName":"U-component_of_WINDS"},"data":[0,0,0,0,0,0,0,0,0,0,0,0,0,0,0,0,0,0,0,0,0,0,0,0,0,0,0,0,0,0,0,0,0,0,0,0,0,0,0,0,0,0,0,0,0,0,0,0,0,0,0,0,0,0,0,0,0,0,3.7715,3.7716,0,3.7852,3.7853,3.7855,3.7763,3.7758,3.7754,3.775,3.7895,3.7902,3.791,0,0,0,0,0,0,0,0,0,0,0,0,0,3.7377,3.7383,3.7715,3.7716,3.7718,3.7851,3.7853,3.7855,3.7763,3.7758,3.7753,3.7748,3.7892,3.7901,3.7911,0,0,0,0,0,0,0,0,0,0,0,0,0,3.752,3.7386,3.7714,3.7688,3.7687,3.7851,3.7853,3.7856,3.7765,3.7758,3.7752,3.7746,3.7889,3.79,3.7912,3.811,0,0,3.7947,3.7952,0,0,0,0,0,0,0,0,3.7512,3.7532,3.769,3.769,3.769,3.7783,3.7787,3.7941,3.7766,3.7735,3.775,3.7743,3.7863,3.7876,3.7916,3.8117,3.8123,3.7948,3.7956,3.7961,3.7964,0,0,0,0,0,0,0,3.7502,3.7526,3.7769,3.7693,3.7692,3.7671,3.7684,3.7816,3.7833,3.7738,3.7731,3.7748,3.7862,3.7905,3.7919,3.8125,3.7948,3.7958,3.7966,3.797,3.8494,3.8501,0,0,0,0,0,0,3.7494,3.7518,3.7765,3.7773,3.7583,3.7682,3.7697,3.776,3.7831,3.7836,3.7754,3.7744,3.7888,3.7905,3.7924,3.8159,3.796,3.7971,3.7978,3.8487,3.8495,3.8503,0,0,0,0,0,0,3.7487,3.7517,3.7759,3.7644,3.7673,3.7694,3.7766,3.7766,3.7809,3.7843,3.7846,3.7795,3.7884,3.7907,3.8064,3.8163,3.7977,3.7987,3.8479,3.849,3.8499,3.8633,0,0,0,0,0,0,3.7478,3.7515,3.759,3.7646,3.768,3.7897,3.7772,3.7773,3.7829,3.7817,3.7883,3.7888,3.7881,3.8047,3.8075,3.8176,3.7996,3.847,3.8484,3.8496,3.862,3.8647,3.867,0,0,0,0,0,3.7466,3.7623,3.7594,3.7624,3.7774,3.7902,3.7922,3.7909,3.7837,3.7913,3.7935,3.7885,3.8148,3.8064,3.8095,3.82,3.8464,3.848,3.8495,3.8609,3.8641,3.8669,0,0,0,0,0,0,3.7579,3.763,3.7598,3.7778,3.7837,3.7887,3.7982,3.7945,3.8026,3.8011,3.7994,3.801,3.8173,3.8202,3.8108,3.8395,3.8294,3.8317,3.837,3.8402,3.8426,3.8415,3.8006,0,0,0,0,0,3.7625,3.7724,3.7764,3.7919,3.7949,3.7961,3.8017,3.8002,3.8062,3.8087,3.812,3.8182,3.8277,3.8341,3.8431,3.8624,3.8636,3.8711,3.8736,3.8757,3.8776,3.8879,3.8913,3.8554,3.8554,3.8554,0,0,3.7721,3.7761,3.7825,3.7942,3.7986,3.809,3.7982,3.8097,3.8174,3.8105,3.8254,3.8281,3.8348,3.8523,3.8602,3.8552,3.8878,3.8776,3.8792,3.8801,3.8899,3.8933,3.8963,3.8565,3.8563,3.8561,0,0,3.7948,3.7989,3.8122,3.8167,3.8233,3.824,3.8272,3.8328,3.8342,3.8491,3.8441,3.8533,3.8699,3.8748,3.8795,3.9041,3.8998,3.9071,3.9201,3.9302,3.933,3.9355,3.9442,3.9473,3.909,3.9091,3.9091,0,3.806,3.8213,3.8195,3.8313,3.8366,3.8307,3.8441,3.8487,3.858,3.8618,3.8561,3.8767,3.8809,3.8994,3.9053,3.9094,3.913,3.9063,3.9327,3.9352,3.9375,3.9458,3.949,3.9099,3.9098,3.9097,3.9097,0,3.8346,3.8453,3.8553,3.8642,3.8707,3.8833,3.8835,3.8902,3.8882,3.8895,3.9047,3.9094,3.9193,3.9236,3.9218,3.9419,3.9386,3.9329,3.9227,3.9418,3.9495,3.9527,3.9111,3.9108,3.9106,3.9104,0,0,3.865,3.8726,3.8763,3.8803,3.8871,3.8954,3.9078,3.9172,3.923,3.9296,3.9399,3.9541,3.9487,3.9541,3.9528,3.9617,3.9807,3.9548,3.9549,3.9594,4.003,4.0072,4.0109,3.9779,3.9785,3.979,4.0024,0,3.888,3.9094,3.9081,3.9282,3.938,3.9324,3.9432,3.9486,3.9501,3.9588,3.9604,3.9704,3.9627,3.9659,3.9744,3.9766,3.9894,3.9749,3.9875,3.988,3.9859,4.015,4.0195,4.0414,4.0054,4.0059,4.0063,0,3.9178,3.9253,3.9463,3.9515,3.9556,3.9653,3.9738,3.9821,3.9881,3.9886,3.9945,3.9917,4.0043,3.9938,4.011,4.0011,4.0062,4.0081,4.0089,4.01,3.9983,4.0168,4.0484,4.0516,4.0111,4.0107,4.0104,0,3.9377,3.9531,3.9676,3.9711,3.9776,3.9845,3.9876,3.993,3.9987,4.0062,4.0098,4.0188,4.0237,4.0307,4.0304,4.0228,4.0479,4.0374,4.0486,4.0486,4.0541,4.0538,4.0869,4.0576,4.0575,4.0574,4.0574,0,3.9636,3.9767,3.9766,3.9855,4.0,3.9984,4.0128,4.0151,4.02,4.0293,4.0251,4.034,4.0331,4.0421,4.042,4.0562,4.0585,4.0592,4.059,4.0596,4.0595,4.0629,4.0613,4.0583,4.0581,4.0579,4.0578,0,3.9883,3.9888,4.0042,4.009,4.0105,4.021,4.0252,4.0337,4.0347,4.0466,4.0493,4.0511,4.0614,4.0618,4.0738,4.0737,4.091,4.0892,4.0889,4.0886,4.0998,4.0987,4.1362,4.141,4.1086,4.1089,4.1091,0,4.0048,4.0147,4.0205,4.0263,4.0298,4.0393,4.0451,4.0439,4.0501,4.0576,4.0652,4.0751,4.0829,4.0997,4.1022,4.1113,4.1096,4.1221,4.1109,4.1111,4.1097,4.109,4.11,4.1242,4.1246,4.1249,4.1251,0,4.0339,4.0336,4.042,4.0505,4.0574,4.0641,4.0703,4.0754,4.0749,4.0821,4.0925,4.0986,4.1106,4.1205,4.1293,4.1326,4.1289,4.1286,4.1317,4.1323,4.1317,4.1321,4.0948,4.1278,4.1275,4.1273,4.1272,4.1271,4.055,4.0634,4.0688,4.0783,4.0827,4.0886,4.0967,4.0988,4.1074,4.117,4.1158,4.1274,4.1331,4.1445,4.1485,4.1576,4.1533,4.1578,4.1589,4.16,4.1611,4.1303,4.1592,4.1591,4.159,4.159,4.1589,0,4.0838,4.0869,4.0956,4.1043,4.1118,4.1074,4.114,4.1206,4.1307,4.1363,4.144,4.156,4.1655,4.1686,4.1779,4.1846,4.1831,4.187,4.1865,4.1873,4.1645,4.1609,4.1881,4.1881,4.1881,4.188,4.188,4.188,4.0997,4.1137,4.1141,4.1303,4.1334,4.1445,4.1487,4.154,4.1584,4.1719,4.1797,4.1816,4.1862,4.1958,4.2043,4.205,4.2086,4.2132,4.2132,4.1919,4.1889,4.1861,4.1827,4.2141,4.2141,4.2353,4.2354,4.2356]},{"header":{"parameterUnit":"m.s-1","parameterCategory":1,"la1":30.2991,"la2":30.254,"lo1":-89.0895,"lo2":-89.0444,"dy":0.0017,"dx":0.0017,"nx":28,"ny":28,"refTime":"2024-09-28T09:00:00:Z","depth":0,"parameterNumber":3,"parameterNumberName":"V-component_of_WINDS"},"data":[0,0,0,0,0,0,0,0,0,0,0,0,0,0,0,0,0,0,0,0,0,0,0,0,0,0,0,0,0,0,0,0,0,0,0,0,0,0,0,0,0,0,0,0,0,0,0,0,0,0,0,0,0,0,0,0,0,0,0.849,0.8491,0,0.8577,0.8578,0.8579,0.8562,0.856,0.8559,0.8557,0.8651,0.8654,0.8658,0,0,0,0,0,0,0,0,0,0,0,0,0,0.8314,0.8317,0.849,0.8491,0.8492,0.8577,0.8578,0.8579,0.8562,0.856,0.8558,0.8556,0.8649,0.8654,0.8659,0,0,0,0,0,0,0,0,0,0,0,0,0,0.8395,0.8319,0.849,0.8494,0.8495,0.8576,0.8578,0.8579,0.8563,0.856,0.8558,0.8556,0.8648,0.8654,0.8659,0.8743,0,0,0.8678,0.868,0,0,0,0,0,0,0,0,0.839,0.8401,0.8492,0.8494,0.8495,0.8556,0.855,0.8635,0.8563,0.8537,0.8557,0.8554,0.8621,0.8629,0.8651,0.8748,0.8752,0.8678,0.8682,0.8684,0.8686,0,0,0,0,0,0,0,0.8385,0.8397,0.8525,0.8494,0.8496,0.8493,0.8501,0.8566,0.8592,0.8539,0.8538,0.8548,0.8622,0.8645,0.8653,0.8753,0.8678,0.8683,0.8687,0.8689,0.8923,0.8925,0,0,0,0,0,0,0.8377,0.8393,0.8522,0.8527,0.8436,0.8498,0.8508,0.8539,0.8591,0.8596,0.855,0.8547,0.8636,0.8646,0.8656,0.8758,0.8684,0.869,0.8693,0.892,0.8923,0.8926,0,0,0,0,0,0,0.8373,0.8389,0.8518,0.846,0.8476,0.8503,0.8539,0.8542,0.8565,0.8599,0.8604,0.8569,0.8635,0.8648,0.8721,0.8761,0.8692,0.8698,0.8917,0.8921,0.8925,0.8962,0,0,0,0,0,0,0.8368,0.8388,0.8419,0.8461,0.8479,0.8581,0.8541,0.8545,0.8575,0.8572,0.8618,0.8624,0.8634,0.8713,0.8727,0.8768,0.8702,0.8914,0.8919,0.8924,0.8957,0.8966,0.8974,0,0,0,0,0,0.8362,0.8427,0.8421,0.8436,0.8519,0.8583,0.8594,0.8603,0.8578,0.8611,0.8632,0.8622,0.8754,0.872,0.8737,0.8779,0.8911,0.8917,0.8923,0.8953,0.8964,0.8974,0,0,0,0,0,0,0.8392,0.8433,0.8426,0.8506,0.8541,0.858,0.8622,0.8615,0.8659,0.8655,0.8665,0.8676,0.8751,0.8772,0.8734,0.8863,0.8829,0.8839,0.8846,0.8857,0.8866,0.886,0.8707,0,0,0,0,0,0.8407,0.8455,0.8488,0.8556,0.8574,0.8594,0.8623,0.8627,0.8664,0.8679,0.8706,0.8744,0.8794,0.8827,0.8875,0.896,0.897,0.8997,0.9006,0.9013,0.9021,0.9067,0.908,0.8946,0.8946,0.8946,0,0,0.844,0.8468,0.8498,0.8562,0.859,0.864,0.8607,0.8662,0.87,0.8688,0.8759,0.878,0.8823,0.8902,0.8939,0.8923,0.906,0.902,0.9025,0.903,0.9075,0.9088,0.9099,0.895,0.8949,0.8948,0,0,0.8526,0.8552,0.8611,0.8638,0.868,0.8693,0.8707,0.8747,0.876,0.8831,0.8823,0.8868,0.8954,0.8985,0.9012,0.9107,0.91,0.9123,0.9168,0.9213,0.9224,0.9233,0.9268,0.928,0.9131,0.9131,0.9131,0,0.8563,0.8636,0.8642,0.8697,0.8726,0.8715,0.8775,0.8803,0.8858,0.8879,0.886,0.8966,0.8994,0.9081,0.9104,0.9126,0.9143,0.9118,0.9222,0.9231,0.924,0.9273,0.9286,0.9133,0.9133,0.9133,0.9133,0,0.8679,0.873,0.8773,0.8825,0.8858,0.8916,0.8931,0.8964,0.8965,0.898,0.9052,0.9085,0.9139,0.916,0.9162,0.9247,0.9235,0.9219,0.9185,0.9255,0.9286,0.9299,0.9137,0.9136,0.9135,0.9135,0,0,0.8787,0.884,0.8856,0.8879,0.8923,0.8963,0.902,0.9071,0.91,0.9138,0.9187,0.9258,0.9243,0.9273,0.9278,0.9318,0.9392,0.9297,0.9298,0.9313,0.9487,0.95,0.9514,0.9386,0.9389,0.9391,0.9484,0,0.8877,0.8976,0.8982,0.9072,0.912,0.911,0.916,0.9193,0.9208,0.9252,0.927,0.9321,0.9296,0.9315,0.9353,0.9374,0.9427,0.9368,0.9433,0.9435,0.9423,0.9531,0.9544,0.963,0.9496,0.9498,0.95,0,0.8996,0.9036,0.913,0.9166,0.9187,0.9231,0.9278,0.9319,0.9357,0.9365,0.9398,0.9397,0.9457,0.942,0.9502,0.9462,0.9489,0.9503,0.9507,0.9514,0.9472,0.9541,0.9658,0.9671,0.9519,0.9517,0.9516,0,0.9066,0.9143,0.9209,0.9229,0.9273,0.9305,0.9325,0.936,0.939,0.9431,0.945,0.9499,0.9526,0.9563,0.9576,0.9548,0.9658,0.9622,0.9667,0.9667,0.9692,0.969,0.9816,0.9708,0.9708,0.9708,0.9708,0,0.9166,0.9224,0.924,0.9281,0.9346,0.9353,0.9417,0.9436,0.9467,0.9512,0.9507,0.9549,0.9563,0.9608,0.9618,0.9685,0.9697,0.9706,0.9708,0.9707,0.9706,0.9726,0.972,0.9711,0.9711,0.971,0.9709,0,0.9255,0.9268,0.934,0.9375,0.9385,0.9431,0.9462,0.9502,0.9516,0.9573,0.9587,0.961,0.9663,0.9678,0.9742,0.9749,0.9827,0.9824,0.9814,0.9815,0.9859,0.9855,1.0002,1.0022,0.9901,0.9902,0.9903,0,0.9318,0.9362,0.9402,0.943,0.9451,0.9498,0.9528,0.9537,0.9568,0.9613,0.9648,0.9699,0.9741,0.9826,0.9849,0.9898,0.9896,0.9944,0.9904,0.9901,0.9898,0.9895,0.9899,0.9952,0.9954,0.9955,0.9955,0,0.9429,0.9433,0.9476,0.9521,0.9556,0.9592,0.9627,0.9651,0.9664,0.97,0.9753,0.9785,0.985,0.9901,0.9951,0.9973,0.9967,0.9968,0.9981,0.998,0.9973,0.9978,0.9836,0.9965,0.9964,0.9963,0.9963,0.9962,0.9508,0.9546,0.958,0.9627,0.9653,0.9686,0.9724,0.9742,0.9786,0.9838,0.9841,0.9898,0.9934,0.9999,1.0024,1.007,1.0056,1.0075,1.008,1.0085,1.0088,0.9965,1.0079,1.0078,1.0078,1.0078,1.0078,0,0.9619,0.9639,0.9683,0.973,0.9768,0.9756,0.9794,0.9827,0.9877,0.991,0.995,1.0011,1.0061,1.0087,1.0137,1.0169,1.0167,1.0181,1.018,1.0185,1.0098,1.0081,1.0182,1.0182,1.0182,1.0182,1.0182,1.0181,0.9681,0.9745,0.9753,0.9831,0.9851,0.9906,0.9928,0.9958,0.9985,1.0052,1.0093,1.0109,1.014,1.0191,1.0237,1.0243,1.0262,1.0278,1.0283,1.0202,1.0191,1.0181,1.0166,1.0282,1.0282,1.0366,1.0367,1.0368]}]]